Time,TemperatureF,DewpointF,PressureIn,WindDirection,WindDirectionDegrees,WindSpeedMPH,WindSpeedGustMPH,Humidity,HourlyPrecipIn,Conditions,Clouds,dailyrainin,SoftwareType,DateUTC
2013-10-19 00:04:00,48.0,40.0,29.97,WNW,302,1.0,6.0,74,0.00,,,0.00,,2013-10-19 05:04:00,
2013-10-19 00:22:00,48.0,40.0,29.97,WNW,297,0.0,3.0,73,0.00,,,0.00,,2013-10-19 05:22:00,
2013-10-19 00:34:00,48.0,40.0,29.97,WNW,297,0.0,3.0,73,0.00,,,0.00,,2013-10-19 05:34:00,
2013-10-19 00:42:00,48.0,40.0,29.97,WNW,297,0.0,3.0,73,0.00,,,0.00,,2013-10-19 05:42:00,
2013-10-19 00:52:00,47.0,39.0,29.97,WNW,297,2.0,5.0,74,0.00,,,0.00,,2013-10-19 05:52:00,
2013-10-19 01:02:00,47.0,39.0,29.97,WNW,297,2.0,5.0,74,0.00,,,0.00,,2013-10-19 06:02:00,
2013-10-19 01:22:00,46.0,40.0,29.97,WNW,290,5.0,10.0,79,0.00,,,0.00,,2013-10-19 06:22:00,
2013-10-19 01:32:00,46.0,40.0,29.97,WNW,290,5.0,10.0,79,0.00,,,0.00,,2013-10-19 06:32:00,
2013-10-19 01:42:00,46.0,40.0,29.97,WNW,290,5.0,10.0,79,0.00,,,0.00,,2013-10-19 06:42:00,
2013-10-19 01:52:00,44.0,40.0,29.97,WNW,299,1.0,6.0,86,0.02,,,0.02,,2013-10-19 06:52:00,
2013-10-19 02:02:00,44.0,40.0,29.97,WNW,299,1.0,6.0,86,0.02,,,0.02,,2013-10-19 07:02:00,
2013-10-19 02:22:00,44.0,41.0,29.97,WNW,299,1.0,4.0,88,0.05,,,0.05,,2013-10-19 07:22:00,
2013-10-19 02:32:00,44.0,41.0,29.97,WNW,299,1.0,4.0,88,0.05,,,0.05,,2013-10-19 07:32:00,
2013-10-19 02:53:00,44.0,41.0,29.97,WNW,298,2.0,6.0,90,0.07,,,0.09,,2013-10-19 07:53:00,
2013-10-19 03:03:00,44.0,41.0,29.97,WNW,298,2.0,6.0,90,0.07,,,0.09,,2013-10-19 08:03:00,
2013-10-19 03:22:00,43.0,41.0,29.96,WNW,298,1.0,4.0,91,0.08,,,0.13,,2013-10-19 08:22:00,
2013-10-19 03:32:00,43.0,41.0,29.96,WNW,298,1.0,4.0,91,0.08,,,0.13,,2013-10-19 08:32:00,
2013-10-19 03:42:00,43.0,41.0,29.96,WNW,298,1.0,4.0,91,0.08,,,0.13,,2013-10-19 08:42:00,
2013-10-19 03:52:00,43.0,41.0,29.96,WNW,293,3.0,9.0,91,0.08,,,0.17,,2013-10-19 08:52:00,
2013-10-19 04:01:00,43.0,41.0,29.96,WNW,293,3.0,9.0,91,0.08,,,0.17,,2013-10-19 09:01:00,
2013-10-19 04:21:00,43.0,41.0,29.96,WNW,293,1.0,5.0,92,0.07,,,0.20,,2013-10-19 09:21:00,
2013-10-19 04:33:00,43.0,41.0,29.96,WNW,293,1.0,5.0,92,0.07,,,0.20,,2013-10-19 09:33:00,
2013-10-19 04:54:00,42.0,40.0,29.96,WNW,293,1.0,5.0,92,0.04,,,0.21,,2013-10-19 09:54:00,
2013-10-19 05:03:00,42.0,40.0,29.96,WNW,293,1.0,5.0,92,0.04,,,0.21,,2013-10-19 10:03:00,
2013-10-19 05:23:00,42.0,40.0,29.96,WNW,298,2.0,5.0,91,0.03,,,0.23,,2013-10-19 10:23:00,
2013-10-19 05:32:00,42.0,40.0,29.96,WNW,298,2.0,5.0,91,0.03,,,0.23,,2013-10-19 10:32:00,
2013-10-19 05:53:00,41.0,39.0,29.96,WNW,295,1.0,10.0,91,0.05,,,0.26,,2013-10-19 10:53:00,
2013-10-19 06:02:00,41.0,39.0,29.96,WNW,295,1.0,10.0,91,0.05,,,0.26,,2013-10-19 11:02:00,
2013-10-19 06:22:00,40.0,37.0,29.96,WNW,290,4.0,8.0,90,0.05,,,0.28,,2013-10-19 11:22:00,
2013-10-19 06:33:00,40.0,37.0,29.96,WNW,290,4.0,8.0,90,0.05,,,0.28,,2013-10-19 11:33:00,
2013-10-19 06:52:00,40.0,38.0,29.96,WNW,300,0.0,2.0,91,0.03,,,0.29,,2013-10-19 11:52:00,
2013-10-19 07:01:00,40.0,38.0,29.96,WNW,300,0.0,2.0,91,0.03,,,0.29,,2013-10-19 12:01:00,
2013-10-19 07:21:00,40.0,38.0,29.97,West,264,0.0,3.0,91,0.01,,,0.29,,2013-10-19 12:21:00,
2013-10-19 07:32:00,40.0,38.0,29.97,West,264,0.0,3.0,91,0.01,,,0.29,,2013-10-19 12:32:00,
2013-10-19 07:52:00,40.0,38.0,29.97,West,265,1.0,3.0,92,0.00,,,0.29,,2013-10-19 12:52:00,
2013-10-19 08:22:00,40.0,38.0,29.98,West,265,0.0,3.0,92,0.00,,,0.29,,2013-10-19 13:22:00,
2013-10-19 08:32:00,40.0,38.0,29.98,West,265,0.0,3.0,92,0.00,,,0.29,,2013-10-19 13:32:00,
2013-10-19 08:52:00,41.0,39.0,29.98,SW,232,0.0,5.0,92,0.00,,,0.29,,2013-10-19 13:52:00,
2013-10-19 09:21:00,42.0,40.0,29.98,WSW,247,1.0,5.0,93,0.00,,,0.29,,2013-10-19 14:21:00,
2013-10-19 09:32:00,42.0,40.0,29.98,WSW,247,1.0,5.0,93,0.00,,,0.29,,2013-10-19 14:32:00,
2013-10-19 09:52:00,43.0,40.0,29.97,WSW,239,2.0,9.0,90,0.00,,,0.29,,2013-10-19 14:52:00,
2013-10-19 10:02:00,43.0,40.0,29.97,WSW,239,2.0,9.0,90,0.00,,,0.29,,2013-10-19 15:02:00,
2013-10-19 10:22:00,45.0,40.0,29.97,SW,220,3.0,9.0,84,0.00,,,0.29,,2013-10-19 15:22:00,
2013-10-19 10:55:00,45.0,40.0,29.98,West,274,2.0,9.0,81,0.00,,,0.29,,2013-10-19 15:55:00,
2013-10-19 11:04:00,45.0,40.0,29.98,West,274,2.0,9.0,81,0.00,,,0.29,,2013-10-19 16:04:00,
2013-10-19 11:24:00,47.0,40.0,29.97,WSW,252,6.0,14.0,77,0.00,,,0.29,,2013-10-19 16:24:00,
2013-10-19 11:33:00,47.0,40.0,29.97,WSW,252,6.0,14.0,77,0.00,,,0.29,,2013-10-19 16:33:00,
2013-10-19 11:53:00,49.0,41.0,29.97,WSW,246,0.0,8.0,74,0.00,,,0.29,,2013-10-19 16:53:00,
2013-10-19 12:03:00,49.0,41.0,29.97,WSW,246,0.0,8.0,74,0.00,,,0.29,,2013-10-19 17:03:00,
2013-10-19 12:22:00,50.0,39.0,29.96,NW,304,1.0,7.0,66,0.00,,,0.29,,2013-10-19 17:22:00,
2013-10-19 12:34:00,50.0,39.0,29.96,NW,304,1.0,7.0,66,0.00,,,0.29,,2013-10-19 17:34:00,
2013-10-19 12:52:00,52.0,38.0,29.96,WSW,256,5.0,13.0,58,0.00,,,0.29,,2013-10-19 17:52:00,
2013-10-19 13:02:00,52.0,38.0,29.96,WSW,256,5.0,13.0,58,0.00,,,0.29,,2013-10-19 18:02:00,
2013-10-19 13:22:00,53.0,38.0,29.94,WSW,241,5.0,11.0,56,0.00,,,0.29,,2013-10-19 18:22:00,
2013-10-19 13:32:00,53.0,38.0,29.94,WSW,241,5.0,11.0,56,0.00,,,0.29,,2013-10-19 18:32:00,
2013-10-19 13:52:00,54.0,36.0,29.94,WSW,248,8.0,19.0,50,0.00,,,0.29,,2013-10-19 18:52:00,
2013-10-19 14:02:00,54.0,36.0,29.94,WSW,248,8.0,19.0,50,0.00,,,0.29,,2013-10-19 19:02:00,
2013-10-19 14:22:00,55.0,35.0,29.93,SW,220,4.0,14.0,47,0.00,,,0.29,,2013-10-19 19:22:00,
2013-10-19 14:32:00,55.0,35.0,29.93,SW,220,4.0,14.0,47,0.00,,,0.29,,2013-10-19 19:32:00,
2013-10-19 14:52:00,55.0,36.0,29.93,SW,219,8.0,18.0,48,0.00,,,0.29,,2013-10-19 19:52:00,
2013-10-19 15:03:00,55.0,36.0,29.93,SW,219,8.0,18.0,48,0.00,,,0.29,,2013-10-19 20:03:00,
2013-10-19 15:22:00,55.0,36.0,29.92,WSW,254,4.0,18.0,48,0.00,,,0.29,,2013-10-19 20:22:00,
2013-10-19 15:32:00,55.0,36.0,29.92,WSW,254,4.0,18.0,48,0.00,,,0.29,,2013-10-19 20:32:00,
2013-10-19 15:52:00,55.0,36.0,29.92,WNW,284,3.0,15.0,48,0.00,,,0.29,,2013-10-19 20:52:00,
2013-10-19 16:02:00,55.0,36.0,29.92,WNW,284,3.0,15.0,48,0.00,,,0.29,,2013-10-19 21:02:00,
2013-10-19 16:21:00,55.0,36.0,29.92,West,260,5.0,12.0,49,0.00,,,0.29,,2013-10-19 21:21:00,
2013-10-19 16:34:00,55.0,36.0,29.92,West,260,5.0,12.0,49,0.00,,,0.29,,2013-10-19 21:34:00,
2013-10-19 16:54:00,55.0,36.0,29.92,WSW,252,4.0,14.0,48,0.00,,,0.29,,2013-10-19 21:54:00,
2013-10-19 17:04:00,55.0,36.0,29.92,WSW,252,4.0,14.0,48,0.00,,,0.29,,2013-10-19 22:04:00,
2013-10-19 17:24:00,55.0,36.0,29.93,SSW,213,5.0,14.0,49,0.00,,,0.29,,2013-10-19 22:24:00,
2013-10-19 17:34:00,55.0,36.0,29.93,SSW,213,5.0,14.0,49,0.00,,,0.29,,2013-10-19 22:34:00,
2013-10-19 17:43:00,55.0,36.0,29.93,SSW,213,5.0,14.0,49,0.00,,,0.29,,2013-10-19 22:43:00,
2013-10-19 17:53:00,54.0,36.0,29.93,SW,223,4.0,11.0,51,0.00,,,0.29,,2013-10-19 22:53:00,
2013-10-19 18:03:00,54.0,36.0,29.93,SW,223,4.0,11.0,51,0.00,,,0.29,,2013-10-19 23:03:00,
2013-10-19 18:22:00,52.0,37.0,29.93,SW,224,2.0,7.0,56,0.00,,,0.29,,2013-10-19 23:22:00,
2013-10-19 18:34:00,52.0,37.0,29.93,SW,224,2.0,7.0,56,0.00,,,0.29,,2013-10-19 23:34:00,
2013-10-19 18:52:00,50.0,37.0,29.93,SW,222,1.0,3.0,61,0.00,,,0.29,,2013-10-19 23:52:00,
2013-10-19 19:02:00,50.0,37.0,29.93,SW,222,1.0,3.0,61,0.00,,,0.29,,2013-10-20 00:02:00,
2013-10-19 19:22:00,50.0,37.0,29.93,SW,222,1.0,3.0,61,0.00,,,0.29,,2013-10-20 00:22:00,
2013-10-19 19:52:00,47.0,37.0,29.95,SW,222,0.0,2.0,68,0.00,,,0.29,,2013-10-20 00:52:00,
2013-10-19 20:02:00,47.0,37.0,29.95,SW,222,0.0,2.0,68,0.00,,,0.29,,2013-10-20 01:02:00,
2013-10-19 20:22:00,46.0,37.0,29.95,SW,222,0.0,1.0,70,0.00,,,0.29,,2013-10-20 01:22:00,
2013-10-19 20:32:00,46.0,37.0,29.95,SW,222,0.0,1.0,70,0.00,,,0.29,,2013-10-20 01:32:00,
2013-10-19 20:52:00,46.0,37.0,29.95,SW,222,0.0,1.0,70,0.00,,,0.29,,2013-10-20 01:52:00,
2013-10-19 21:02:00,46.0,37.0,29.95,SW,222,0.0,1.0,70,0.00,,,0.29,,2013-10-20 02:02:00,
2013-10-19 21:22:00,43.0,36.0,29.96,SW,222,0.0,1.0,76,0.00,,,0.29,,2013-10-20 02:22:00,
2013-10-19 21:32:00,43.0,36.0,29.96,SW,222,0.0,1.0,76,0.00,,,0.29,,2013-10-20 02:32:00,
2013-10-19 21:52:00,43.0,36.0,29.97,SW,222,1.0,2.0,77,0.00,,,0.29,,2013-10-20 02:52:00,
2013-10-19 22:02:00,43.0,36.0,29.97,SW,222,1.0,2.0,77,0.00,,,0.29,,2013-10-20 03:02:00,
2013-10-19 22:22:00,42.0,35.0,29.97,SW,222,0.0,2.0,77,0.00,,,0.29,,2013-10-20 03:22:00,
2013-10-19 22:34:00,42.0,35.0,29.97,SW,222,0.0,2.0,77,0.00,,,0.29,,2013-10-20 03:34:00,
2013-10-19 22:55:00,42.0,35.0,29.96,SW,222,1.0,3.0,77,0.00,,,0.29,,2013-10-20 03:55:00,
2013-10-19 23:02:00,-999.0,-99.9,29.96,SW,222,1.0,3.0,-999,-99.99,,,-99.99,,2013-10-20 04:02:00,
2013-10-19 23:24:00,42.0,36.0,29.96,SW,222,0.0,1.0,78,0.00,,,0.29,,2013-10-20 04:24:00,
2013-10-19 23:34:00,42.0,36.0,29.96,SW,222,0.0,1.0,78,0.00,,,0.29,,2013-10-20 04:34:00,
2013-10-19 23:54:00,42.0,36.0,29.96,SSE,155,0.0,2.0,78,0.00,,,0.29,,2013-10-20 04:54:00,